Weather History for St. Paul Lake Elmo, MN

Change the Weather History Date:

Sunday, February 2, 2014

  Actual Average (KSTP) Record (KSTP)
Temperature  
Mean Temperature -2 °F -  
Max Temperature 12 °F 26 °F 46 °F (2006)
Min Temperature -16 °F 11 °F -9 °F (2001)
Degree Days  
Heating Degree Days 67    
Moisture  
Dew Point -7 °F    
Average Humidity 77    
Maximum Humidity 92    
Minimum Humidity 62    
Precipitation  
Precipitation 0.00 in - - ()
Sea Level Pressure  
Sea Level Pressure 30.25 in    
Wind  
Wind Speed 4 mph (SSW)    
Max Wind Speed 12 mph    
Max Gust Speed -    
Visibility 10 miles    
Events      
Averages and records for this station are not official NWS values.
T = Trace of Precipitation, MM = Missing Value Source: NWS Daily Summary

Daily Weather History Graph

Daily Weather History Graph

Search for Another Location

Airport:

Trip Planner

Search our weather history database for the weather conditions in past years. The results will help you decide how hot, cold, wet, or windy it might be!

Date:

Astronomy

Feb. 02, 2014 Rise Set
Actual Time 7:29 AM CST 5:20 PM CST
Civil Twilight 6:58 AM CST 5:52 PM CST
Nautical Twilight 6:23 AM CST 6:27 PM CST
Astronomical Twilight 5:49 AM CST 7:01 PM CST
Moon 8:46 AM CST (2/2) 9:17 PM CST (2/2)
Length of Visible Light 10h 53m
Length of Day
9h 50m
Waxing Crescent, 11% of the Moon is Illuminated
Feb 2
Waxing Crescent
Feb 6
First Quarter
Feb 14
Full
Feb 22
Last Quarter
Mar 1
New

Hourly Weather History & Observations

Time (CST) Temp. Windchill Dew Point Humidity Pressure Visibility Wind Dir Wind Speed Gust Speed Precip Events Conditions
12:11 AM 1.4 °F -9.9 °F -7.6 °F 66% 30.21 in 10.0 mi WNW 5.8 mph - N/A   Clear
12:31 AM -0.4 °F -13.4 °F -7.6 °F 72% 30.22 in 10.0 mi WNW 6.9 mph - N/A   Clear
12:51 AM -0.4 °F -13.4 °F -7.6 °F 72% 30.22 in 10.0 mi WNW 6.9 mph - N/A   Clear
1:11 AM -0.4 °F -12.0 °F -7.6 °F 72% 30.22 in 10.0 mi WNW 5.8 mph - N/A   Clear
1:31 AM -2.2 °F -15.6 °F -7.6 °F 78% 30.22 in 10.0 mi NW 6.9 mph - N/A   Clear
1:51 AM -2.2 °F -12.5 °F -9.4 °F 71% 30.22 in 10.0 mi WNW 4.6 mph - N/A   Clear
2:11 AM -4.0 °F -12.4 °F -9.4 °F 78% 30.23 in 10.0 mi NW 3.5 mph - N/A   Clear
2:32 AM -4.0 °F -16.3 °F -9.4 °F 78% 30.23 in 10.0 mi WNW 5.8 mph - N/A   Clear
2:51 AM -4.0 °F -16.3 °F -9.4 °F 78% 30.23 in 10.0 mi WNW 5.8 mph - N/A   Clear
3:11 AM -5.8 °F - -13.0 °F 71% 30.23 in 10.0 mi Calm Calm - N/A   Clear
3:32 AM -4.0 °F - -9.4 °F 78% 30.23 in 10.0 mi Calm Calm - N/A   Clear
3:51 AM -9.4 °F - -14.8 °F 77% 30.23 in 10.0 mi Calm Calm - N/A   Clear
4:12 AM -7.6 °F - -11.2 °F 84% 30.23 in 10.0 mi Calm Calm - N/A   Clear
4:31 AM -9.4 °F - -13.0 °F 84% 30.24 in 10.0 mi Calm Calm - N/A   Clear
4:51 AM -7.6 °F - -13.0 °F 77% 30.24 in 10.0 mi Calm Calm - N/A   Clear
5:11 AM -9.4 °F - -13.0 °F 84% 30.25 in 10.0 mi Calm Calm - N/A   Clear
5:31 AM -13.0 °F - -16.6 °F 84% 30.25 in 10.0 mi Calm Calm - N/A   Clear
5:51 AM -13.0 °F - -16.6 °F 84% 30.26 in 10.0 mi Calm Calm - N/A   Clear
6:11 AM -14.8 °F - -18.4 °F 84% 30.26 in 10.0 mi Calm Calm - N/A   Clear
6:31 AM -14.8 °F - -18.4 °F 84% 30.27 in 10.0 mi Calm Calm - N/A   Clear
6:51 AM -16.6 °F - -20.2 °F 84% 30.27 in 10.0 mi Calm Calm - N/A   Clear
7:11 AM -14.8 °F - -16.6 °F 92% 30.27 in 10.0 mi Calm Calm - N/A   Clear
7:32 AM -16.6 °F - -20.2 °F 84% 30.28 in 10.0 mi Calm Calm - N/A   Clear
7:51 AM -13.0 °F - -16.6 °F 84% 30.28 in 10.0 mi Calm Calm - N/A   Clear
8:11 AM -13.0 °F - -16.6 °F 84% 30.29 in 10.0 mi Calm Calm - N/A   Clear
8:31 AM -14.8 °F - -18.4 °F 84% 30.29 in 10.0 mi Calm Calm - N/A   Clear
8:51 AM -11.2 °F - -14.8 °F 84% 30.29 in 10.0 mi Calm Calm - N/A   Clear
9:11 AM -7.6 °F - -11.2 °F 84% 30.30 in 10.0 mi Calm Calm - N/A   Clear
9:31 AM -4.0 °F - -7.6 °F 85% 30.29 in 10.0 mi Calm Calm - N/A   Clear
9:52 AM -2.2 °F - -7.6 °F 78% 30.30 in 10.0 mi Calm Calm - N/A   Clear
10:11 AM 1.4 °F - -4.0 °F 78% 30.29 in 10.0 mi Calm Calm - N/A   Clear
10:31 AM 3.2 °F - -4.0 °F 72% 30.29 in 10.0 mi Calm Calm - N/A   Clear
10:51 AM 3.2 °F - -4.0 °F 72% 30.29 in 10.0 mi Calm Calm - N/A   Clear
11:11 AM 5.0 °F -5.6 °F -4.0 °F 66% 30.29 in 10.0 mi South 5.8 mph - N/A   Clear
11:31 AM 5.0 °F -5.6 °F -4.0 °F 66% 30.28 in 10.0 mi SSE 5.8 mph - N/A   Clear
11:51 AM 6.8 °F -3.5 °F -2.2 °F 67% 30.27 in 10.0 mi South 5.8 mph - N/A   Clear
12:11 PM 8.6 °F -1.3 °F -0.4 °F 67% 30.27 in 10.0 mi SSW 5.8 mph - N/A   Clear
12:31 PM 8.6 °F -2.6 °F -0.4 °F 67% 30.26 in 10.0 mi South 6.9 mph - N/A   Clear
12:51 PM 8.6 °F -3.7 °F -0.4 °F 67% 30.26 in 10.0 mi South 8.1 mph - N/A   Clear
1:11 PM 8.6 °F -2.6 °F -0.4 °F 67% 30.25 in 10.0 mi South 6.9 mph - N/A   Clear
1:31 PM 10.4 °F -2.4 °F 1.4 °F 67% 30.25 in 10.0 mi South 9.2 mph - N/A   Clear
1:51 PM 10.4 °F -2.4 °F 1.4 °F 67% 30.24 in 10.0 mi South 9.2 mph - N/A   Clear
2:11 PM 10.4 °F -3.3 °F 1.4 °F 67% 30.25 in 10.0 mi South 10.4 mph - N/A   Clear
2:31 PM 10.4 °F -2.4 °F 1.4 °F 67% 30.25 in 10.0 mi South 9.2 mph - N/A   Clear
2:51 PM 10.4 °F -1.5 °F 1.4 °F 67% 30.25 in 10.0 mi South 8.1 mph - N/A   Clear
3:11 PM 12.2 °F -1.0 °F 1.4 °F 62% 30.26 in 10.0 mi South 10.4 mph - N/A   Clear
3:31 PM 10.4 °F -2.4 °F 1.4 °F 67% 30.26 in 10.0 mi South 9.2 mph - N/A   Clear
3:51 PM 10.4 °F -4.1 °F 1.4 °F 67% 30.27 in 10.0 mi South 11.5 mph - N/A   Clear
4:11 PM 10.4 °F -3.3 °F 1.4 °F 67% 30.26 in 10.0 mi South 10.4 mph - N/A   Clear
4:31 PM 10.4 °F -2.4 °F 1.4 °F 67% 30.26 in 10.0 mi South 9.2 mph - N/A   Clear
4:51 PM 10.4 °F -3.3 °F 1.4 °F 67% 30.25 in 10.0 mi South 10.4 mph - N/A   Clear
5:11 PM 8.6 °F -3.7 °F -0.4 °F 67% 30.24 in 10.0 mi South 8.1 mph - N/A   Clear
5:31 PM 6.8 °F -5.9 °F -0.4 °F 72% 30.24 in 10.0 mi South 8.1 mph - N/A   Clear
5:52 PM 5.0 °F -9.1 °F -0.4 °F 78% 30.24 in 10.0 mi South 9.2 mph - N/A   Clear
6:11 PM 5.0 °F -5.6 °F -2.2 °F 72% 30.24 in 10.0 mi South 5.8 mph - N/A   Clear
6:31 PM 1.4 °F -9.9 °F -4.0 °F 78% 30.23 in 10.0 mi South 5.8 mph - N/A   Clear
6:51 PM -0.4 °F -10.4 °F -5.8 °F 78% 30.24 in 10.0 mi SSW 4.6 mph - N/A   Clear
7:11 PM 1.4 °F - -4.0 °F 78% 30.23 in 10.0 mi Calm Calm - N/A   Clear
7:31 PM 1.4 °F - -4.0 °F 78% 30.23 in 10.0 mi Calm Calm - N/A   Clear
7:51 PM 1.4 °F -6.2 °F -4.0 °F 78% 30.22 in 10.0 mi South 3.5 mph - N/A   Clear
8:11 PM -5.8 °F -14.5 °F -9.4 °F 84% 30.22 in 10.0 mi South 3.5 mph - N/A   Clear
8:31 PM -2.2 °F -10.4 °F -5.8 °F 85% 30.22 in 10.0 mi South 3.5 mph - N/A   Clear
8:51 PM -0.4 °F - -4.0 °F 85% 30.21 in 10.0 mi Calm Calm - N/A   Clear
9:11 PM -0.4 °F - -4.0 °F 85% 30.22 in 10.0 mi Calm Calm - N/A   Clear
9:31 PM -7.6 °F - -11.2 °F 84% 30.21 in 10.0 mi Calm Calm - N/A   Clear
9:51 PM -4.0 °F - -7.6 °F 85% 30.21 in 10.0 mi Calm Calm - N/A   Clear
10:11 PM -5.8 °F -14.5 °F -7.6 °F 92% 30.21 in 10.0 mi SSW 3.5 mph - N/A   Clear
10:31 PM -2.2 °F -10.4 °F -5.8 °F 85% 30.21 in 10.0 mi SSW 3.5 mph - N/A   Clear
10:51 PM -2.2 °F -10.4 °F -5.8 °F 85% 30.22 in 10.0 mi South 3.5 mph - N/A   Clear
11:11 PM -0.4 °F -8.3 °F -5.8 °F 78% 30.21 in 10.0 mi South 3.5 mph - N/A   Clear
11:31 PM -0.4 °F - -5.8 °F 78% 30.21 in 10.0 mi Calm Calm - N/A   Clear
11:51 PM -0.4 °F -8.3 °F -4.0 °F 85% 30.22 in 10.0 mi South 3.5 mph - N/A   Clear